Location: ????????
(56.1167°N, 38.6333°E)
Time: 20:42:53
(UTC+00:00)

Cosmos 1892 Rocket - Pass Details

Date: 18 November 2025
Orbit: 601 x 625 km, 82.5° (Epoch: 14 December)

Event Time Altitude Azimuth Distance (km) Brightness Sun altitude
Rises 15:11:06 0° 352° (N) 2,890 7.0 -16.0°
Reaches altitude 10° 15:13:32 10° 3° (N) 1,985 6.0 -16.4°
Enters shadow 15:17:18 31° 61° (ENE) 1,089 4.3 -16.9°
